DECAYED

STARLINK-36383, 67922 (Decayed)

Orbit data source: Space-Track

STARLINK-36383, 67922 was a payload satellite owned by SpaceX/Seattle (US) in LEO that was launched on Sun, 22 Feb 2026 UTC via an FALCON 9 launch vehicle from the Air Force Eastern Test Range (AFETR). Payload-class satellites include a variety of spacecraft equipped with specific instruments for various scientific and technological missions. These include communications satellites like Starlink; space stations such as the ISS; scientific satellites like the Hubble; Earth observation satellites from companies like Planet Labs, Umbra, and HawkEye 360; GPS; miniature CubeSats for education and research; and military/defense satellites.

Not visible in the next 10 days
Identifier
67922, 2026-036U
Orbit
Decayed
Country
Flag of USUS
Related business
Manufacturer
SpaceX/Seattle
Mission
Decayed Commercial Communications
Bus & Motor
STARLINK V2MO, Unknown motor
Mass
575 kg wet, ~530 kg dry
Launch date (UTC)
2026-02-22 (4 months ago)
Launch vehicle
FALCON 9
Launch site
Air Force Eastern Test Range (AFETR)
Object type
Payload
Rocket body
Debris
Shape & HBR
Box + 2 Pan, 17.7 m
Radar Cross Section
36.964 m², Large (>1 m²)

Expand to show TLE details & history
Last TLE update: 2 months ago

TLE from 2 months ago
0 STARLINK-36383
1 67922U 26036U   26104.16443775  .14325438  90226-5  38899-2 0  9996
2 67922  42.9947  31.0900 0005003 249.4974 110.5378 16.27124853  9309
Epoch: 2026-04-14T03:56Z
TLE epoch observation values (Epoch: 2026-04-14T03:56:47.421Z)
Latitude
0.00002°
Longitude
129.54782°
Altitude
201.199 km
Speed
7.787 km/s
True Right ascension
02h 04m 21s
True Declination
0° 00' 00"
Sunlit
Object was in daylight at epoch
Visualization orbit readout
Latitude
Unknown
Longitude
Unknown
Altitude
Unknown
Speed
Unknown
Apparent Right ascension
Unknown
Apparent Declination
Unknown
Sunlit
N/A
Visualization observer readout
Local Sidereal Time
07:19:47
Azimuth
Unknown
Elevation
Unknown
Doppler factor
Unknown
Orbital elements
Apogee altitude
205.599 km
Perigee altitude
199.015 km
Semi-major axis
6,580.444 km
Eccentricity
0.0005
Inclination
42.9947°
RAAN
31.09°
Arg. of periapsis
249.4974°
True anomaly
110.59147°
Mean anomaly
110.5378°
Eccentric anomaly
110.56464°
Mean motion
4.06593 °/min
Orbital period
88.54 mins
BSTAR
0.0038899
Loading maneuver chart data...
Computing Atmospheric mass density...
Loading historical data...
Loading historical data...
Loading historical data...
Loading historical data...
Loading historical data...
Loading historical data...
Loading historical data...

Documentation

Showing up to 5 results
|